Location: Boulder, CO
(40.0083°N, 105.2472°W)
Time: 06:43:28
(UTC-07:00)

SORCE - Visible Passes

Search period start: 23 January 2018 00:00
Search period end: 02 February 2018 00:00
Orbit: 585 x 618 km, 40.0° (Epoch: 22 January)

Date Brightness Start Highest point End Pass type
(mag) Time Alt. Az. Time Alt. Az. Time Alt. Az.
23 Jan 8.1 06:11:14 10° SSW 06:14:53 25° SSE 06:18:34 10° E visible
24 Jan 7.3 06:21:24 10° SW 06:25:30 38° SSE 06:29:40 10° E visible
25 Jan 8.3 04:53:22 15° S 04:54:53 17° SE 04:57:49 10° ESE visible
25 Jan 6.6 06:31:53 10° WSW 06:36:12 55° SSE 06:40:35 10° E visible
26 Jan 7.6 05:04:14 24° S 05:05:26 28° SSE 05:09:13 10° E visible
26 Jan 6.2 06:42:33 10° WSW 06:46:58 73° SSE 06:51:26 10° E visible
27 Jan 6.9 05:14:55 34° SSW 05:16:05 41° SSE 05:20:17 10° E visible
28 Jan 6.3 05:25:28 40° SW 05:26:48 59° SSE 05:31:10 10° E visible
29 Jan 8.9 03:59:12 13° E 03:59:12 13° E 03:59:53 10° E visible
29 Jan 6.0 05:35:54 37° WSW 05:37:34 77° SSE 05:42:01 10° E visible
30 Jan 8.6 04:09:35 18° E 04:09:35 18° E 04:10:53 10° E visible
30 Jan 5.9 05:46:16 30° W 05:48:24 88° SSE 05:52:51 10° E visible
31 Jan 8.1 04:19:53 24° E 04:19:53 24° E 04:21:46 10° E visible
31 Jan 5.9 05:56:34 24° W 05:59:14 88° NNE 06:03:41 10° E visible
01 Feb 7.6 04:30:09 32° E 04:30:09 32° E 04:32:35 10° E visible
01 Feb 5.9 06:06:50 18° W 06:10:04 86° S 06:14:32 10° E visible
